TimeMST,TemperatureF,Dew PointF,Humidity,Sea Level PressureIn,VisibilityMPH,Wind Direction,Wind SpeedMPH,Gust SpeedMPH,PrecipitationIn,Events,Conditions,WindDirDegrees,DateUTC
12:00 AM,-30.5,-38.2,66,-9999,-9999.0,NW,1.2,-,0.02,,Unknown,320,2013-12-06 07:00:00
1:00 AM,-25.8,-32.4,71,-9999,-9999.0,NNW,1.2,-,N/A,,Unknown,340,2013-12-06 08:00:00
2:00 AM,-28.3,-35.3,69,-9999,-9999.0,North,1.2,-,N/A,,Unknown,10,2013-12-06 09:00:00
3:00 AM,-24.2,-30.5,72,-9999,-9999.0,North,1.2,-,N/A,,Unknown,10,2013-12-06 10:00:00
4:00 AM,-28.5,-34.8,72,-9999,-9999.0,NNW,1.2,-,N/A,,Unknown,330,2013-12-06 11:00:00
5:00 AM,-26,-32,56,,,NW,1.2,,,,,310,2013-12-06 12:00:00
5:00 AM,-26.3,-32.4,73,-9999,-9999.0,NW,1.2,-,N/A,,Unknown,310,2013-12-06 12:00:00
6:00 AM,-27.9,-35.3,68,-9999,-9999.0,NW,1.2,-,N/A,,Unknown,320,2013-12-06 13:00:00
7:00 AM,-33.9,-41.4,66,-9999,-9999.0,Calm,Calm,-,N/A,,Unknown,0,2013-12-06 14:00:00
8:00 AM,-35.7,-43.8,64,-9999,-9999.0,Calm,Calm,-,N/A,,Unknown,0,2013-12-06 15:00:00
9:00 AM,-38.2,-46.5,63,-9999,-9999.0,Calm,Calm,-,N/A,,Unknown,0,2013-12-06 16:00:00
10:00 AM,-35.1,-42.9,66,-9999,-9999.0,NNE,1.2,-,N/A,,Unknown,20,2013-12-06 17:00:00
11:00 AM,-29,-37,50,,,Calm,Calm,,,,,,2013-12-06 18:00:00
11:00 AM,-29.4,-36.6,68,-9999,-9999.0,Calm,Calm,-,N/A,,Unknown,0,2013-12-06 18:00:00
12:00 PM,-23.1,-29.4,72,-9999,-9999.0,Calm,Calm,-,N/A,,Unknown,0,2013-12-06 19:00:00
1:00 PM,-18.2,-24.3,74,-9999,-9999.0,Calm,Calm,-,N/A,,Unknown,0,2013-12-06 20:00:00
2:00 PM,-17.7,-23.6,74,-9999,-9999.0,Calm,Calm,-,N/A,,Unknown,0,2013-12-06 21:00:00
3:00 PM,-16.8,-22.2,76,-9999,-9999.0,Calm,Calm,-,N/A,,Unknown,0,2013-12-06 22:00:00
4:00 PM,-25.1,-32.4,68,-9999,-9999.0,Calm,Calm,-,N/A,,Unknown,0,2013-12-06 23:00:00
5:00 PM,-28,-36,49,,,Calm,Calm,,,,,,2013-12-07 00:00:00
5:00 PM,-28.3,-35.7,68,-9999,-9999.0,Calm,Calm,-,N/A,,Unknown,0,2013-12-07 00:00:00
6:00 PM,-34.2,-42.0,66,-9999,-9999.0,Calm,Calm,-,N/A,,Unknown,0,2013-12-07 01:00:00
7:00 PM,-35.1,-43.1,65,-9999,-9999.0,Calm,Calm,-,N/A,,Unknown,0,2013-12-07 02:00:00
8:00 PM,-35.3,-43.4,64,-9999,-9999.0,Calm,Calm,-,N/A,,Unknown,0,2013-12-07 03:00:00
9:00 PM,-34.8,-42.5,66,-9999,-9999.0,Calm,Calm,-,N/A,,Unknown,0,2013-12-07 04:00:00
10:00 PM,-31.2,-38.4,68,-9999,-9999.0,Calm,Calm,-,N/A,,Unknown,0,2013-12-07 05:00:00
11:00 PM,-35,-43,45,,,Calm,Calm,,,,,,2013-12-07 06:00:00
11:00 PM,-35.0,-43.2,64,-9999,-9999.0,Calm,Calm,-,N/A,,Unknown,0,2013-12-07 06:00:00